My Profile
  1. Member Settings
  2. My Devices
  3. Sign Out
        More Settings
      Elev 1223 ft, 48.111 °N 14.186 °E

      Kematen an der Krems, AT

      Summary

      Temperature (°F)MaxAverageMin
      Max Temperature9277.1662
      Avg Temperature77.9568.1859.89
      Min Temperature7161.0655
      Precipitation (in)MaxAverageMinSum
      Precipitation0.820.0802.51
      Dew Point (°F)MaxAverageMin
      Dew Point64.3858.0248.9
      Wind (mph)MaxAverageMin
      Wind2213.227
      Gust Wind---
      Sea Level Pressure (in)MaxAverageMin
      Sea Level Pressure28.9128.6928.43

      Daily Observations

      DateTemp High/LowDew Pt High/LowHumidityWindMax WindWind GustPressurePrecip.Condition
      8/1/2022 82 °F / 67 °F 65 °F / 55 °F 65 % 18 mph - 28.68 in 0.16 in
      8/2/2022 81 °F / 65 °F 64 °F / 59 °F 71 % 11 mph - 28.75 in 0.04 in
      8/3/2022 86 °F / 62 °F 64 °F / 55 °F 66 % 11 mph - 28.72 in 0 in
      8/4/2022 89 °F / 63 °F 63 °F / 58 °F 64 % 9 mph - 28.67 in 0 in
      8/5/2022 92 °F / 66 °F 68 °F / 62 °F 64 % 18 mph - 28.63 in 0 in
      8/6/2022 75 °F / 61 °F 64 °F / 57 °F 79 % 13 mph - 28.84 in 0.02 in
      8/7/2022 68 °F / 61 °F 58 °F / 52 °F 76 % 18 mph - 28.84 in 0 in
      8/8/2022 73 °F / 60 °F 58 °F / 51 °F 73 % 11 mph - 28.85 in 0.02 in
      8/9/2022 78 °F / 55 °F 56 °F / 50 °F 64 % 13 mph - 28.91 in 0 in
      8/10/2022 78 °F / 55 °F 54 °F / 48 °F 61 % 22 mph - 28.9 in 0 in
      8/11/2022 78 °F / 56 °F 52 °F / 45 °F 55 % 20 mph - 28.81 in 0 in
      8/12/2022 75 °F / 55 °F 52 °F / 47 °F 59 % 16 mph - 28.74 in 0 in
      8/13/2022 80 °F / 55 °F 58 °F / 49 °F 63 % 11 mph - 28.67 in 0 in
      8/14/2022 81 °F / 61 °F 60 °F / 52 °F 63 % 13 mph - 28.53 in 0 in
      8/15/2022 82 °F / 61 °F 60 °F / 56 °F 64 % 16 mph - 28.42 in 0 in
      8/16/2022 84 °F / 65 °F 60 °F / 52 °F 56 % 20 mph - 28.54 in 0 in
      8/17/2022 90 °F / 59 °F 62 °F / 50 °F 57 % 13 mph - 28.53 in 0 in
      8/18/2022 83 °F / 66 °F 64 °F / 58 °F 67 % 22 mph - 28.5 in 0 in
      8/19/2022 77 °F / 64 °F 64 °F / 61 °F 80 % 13 mph - 28.53 in 0.18 in
      8/20/2022 64 °F / 61 °F 62 °F / 58 °F 90 % 16 mph - 28.65 in 0.21 in
      8/21/2022 70 °F / 61 °F 63 °F / 59 °F 92 % 13 mph - 28.66 in 0.86 in
      8/22/2022 68 °F / 59 °F 59 °F / 54 °F 85 % 13 mph - 28.65 in 0 in
      8/23/2022 64 °F / 58 °F 60 °F / 56 °F 92 % 9 mph - 28.71 in 0.1 in
      8/24/2022 76 °F / 60 °F 61 °F / 57 °F 79 % 9 mph - 28.77 in 0 in
      8/25/2022 76 °F / 60 °F 66 °F / 57 °F 81 % 9 mph - 28.7 in 0 in
      8/26/2022 82 °F / 65 °F 68 °F / 63 °F 82 % 13 mph - 28.59 in 0.07 in
      8/27/2022 77 °F / 63 °F 64 °F / 60 °F 77 % 11 mph - 28.59 in 0 in
      8/28/2022 71 °F / 63 °F 65 °F / 62 °F 91 % 11 mph - 28.66 in 0.49 in
      8/29/2022 78 °F / 62 °F 64 °F / 57 °F 80 % 9 mph - 28.76 in 0 in
      8/30/2022 79 °F / 58 °F 62 °F / 55 °F 74 % 11 mph - 28.76 in 0 in
      8/31/2022 62 °F / 57 °F 58 °F / 55 °F 88 % 13 mph - 28.74 in 0.36 in
      essentialaccessibility.com
      We recognize our responsibility to use data and technology for good. We may use or share your data with our data vendors. Take control of your data.
      Glossary